DMSP 5D-2 F11 DEB, 28303

Orbit data source: Space-Track

DMSP 5D-2 F11 DEB, 28303 is space debris in SSO originally from a launch on Thu, 28 Nov 1991 UTC launched from the Air Force Western Test Range (AFWTR). Debris objects in space refer to the collection of defunct objects orbiting the Earth. Examples of debris include non-operational satellites, rocket bodies, and fragments generated from explosions, collisions, or faulty payload assembly.

Loading next visibility...
Identifier
28303, 1991-082Q
Orbit
SSO
Country
Flag of USUS
Related business
Manufacturer
Unknown
Mission
Spacecraft
Bus & Motor
Unknown
Mass
Unknown
Launch date (UTC)
1991-11-28 (35 years ago)
Launch vehicle
Unknown
Launch site
Air Force Western Test Range (AFWTR)
Object type
Payload
Rocket body
Debris
Shape & HBR
Unknown shape, 0.2 m
Radar Cross Section
Medium (>0.1 m² and <1 m²)

Expand to show TLE details & history
Last TLE update: 1 day ago

TLE from 1 day ago
0 DMSP 5D-2 F11 DEB
1 28303U 91082Q   26208.01116793  .00000120  00000-0  68475-4 0  9999
2 28303  98.7190 228.0887 0028042 312.5056  77.5852 14.26261191158062
Epoch: 2026-07-27T00:16Z
TLE epoch observation values (Epoch: 2026-07-27T00:16:04.909Z)
Latitude
30.06935°
Longitude
-85.69955°
Altitude
803.746 km
Speed
7.457 km/s
True Right ascension
14h 52m 05s
True Declination
29° 55' 17"
Sunlit
Object was in daylight at epoch
Visualization orbit readout
Latitude
Unknown
Longitude
Unknown
Altitude
Unknown
Speed
Unknown
Apparent Right ascension
Unknown
Apparent Declination
Unknown
Sunlit
N/A
Visualization observer readout
Local Sidereal Time
15:14:27
Azimuth
Unknown
Elevation
Unknown
Doppler factor
Unknown
Orbital elements
Apogee altitude
821.539 km
Perigee altitude
781.273 km
Semi-major axis
7,179.543 km
Eccentricity
0.0028
Inclination
98.719°
RAAN
228.0887°
Arg. of periapsis
312.5056°
True anomaly
77.89926°
Mean anomaly
77.5852°
Eccentric anomaly
77.74221°
Mean motion
3.56778 °/min
Orbital period
100.9 mins
BSTAR
0.000068475
Loading maneuver chart data...
Computing Atmospheric mass density...

Documentation

Showing up to 5 results
|